Location: C.E.K. Mees Observatory
(42.7003°N, 77.4088°W)
Time: 18:50:23
(UTC-05:00)

Vanguard 2 Rocket - Visible Passes

Search period start: 15 December 2017 00:00
Search period end: 25 December 2017 00:00
Orbit: 556 x 3326 km, 32.9° (Epoch: 15 December)

Date Brightness Start Highest point End Pass type
(mag) Time Alt. Az. Time Alt. Az. Time Alt. Az.
15 Dec 9.5 17:46:24 10° SSW 17:55:20 33° SE 18:06:35 15° E visible
15 Dec 9.2 19:57:24 10° WSW 20:09:48 57° SSE 20:12:23 54° SE visible
15 Dec 10.0 22:10:58 10° W 22:18:10 36° WSW 22:18:10 36° WSW visible
16 Dec11.101:04:48SE01:04:48SE00:23:59Wvisible
16 Dec 9.7 16:48:57 10° S 16:55:55 23° SE 17:05:53 10° E visible
16 Dec 9.2 18:58:27 10° SW 19:09:08 50° SSE 19:16:08 34° ESE visible
16 Dec 9.4 21:11:06 10° WSW 21:21:56 54° SW 21:21:56 54° SW visible
16 Dec 10.7 23:25:51 10° W 23:27:44 15° W 23:27:44 15° W visible
17 Dec 9.2 17:59:58 10° SW 18:09:00 41° SSE 18:19:54 18° E visible
17 Dec 9.2 20:11:39 10° WSW 20:23:56 59° S 20:25:42 57° SSE visible
17 Dec 10.1 22:25:28 10° W 22:31:30 30° WSW 22:31:30 30° WSW visible
18 Dec 9.4 17:02:00 10° SSW 17:09:25 30° SE 17:20:56 10° E visible
18 Dec 9.1 19:12:36 10° WSW 19:23:10 55° SSE 19:29:29 39° ESE visible
18 Dec 9.5 21:25:33 10° W 21:35:17 49° SW 21:35:17 49° SW visible
18 Dec 10.8 23:40:38 10° W 23:41:05 11° W 23:41:05 11° W visible
19 Dec 9.0 18:13:54 10° SW 18:22:54 47° SSE 18:33:16 21° E visible
19 Dec 9.2 20:26:03 10° WSW 20:38:08 58° S 20:39:04 57° S visible
19 Dec 10.3 22:40:05 10° W 22:44:53 25° WSW 22:44:53 25° WSW visible
20 Dec 9.1 17:15:37 10° SW 17:23:10 38° SSE 17:35:33 10° E visible
20 Dec 9.0 19:26:54 10° WSW 19:37:21 56° S 19:42:53 42° SE visible
20 Dec 9.7 21:40:06 10° W 21:48:42 42° SW 21:48:42 42° SW visible
21 Dec 8.9 18:28:06 10° WSW 18:37:01 52° SSE 18:46:44 23° ESE visible
21 Dec 9.2 20:40:32 10° W 20:52:22 54° S 20:52:33 54° S visible
21 Dec 10.4 22:54:58 10° W 22:58:21 19° WSW 22:58:21 19° WSW visible
22 Dec 8.9 17:29:36 10° SW 17:37:08 44° SSE 17:49:57 10° E visible
22 Dec 9.0 19:41:20 10° WSW 19:51:37 55° S 19:56:26 43° SE visible
22 Dec 9.8 21:54:48 10° W 22:02:15 34° WSW 22:02:15 34° WSW visible
23 Dec 8.9 18:42:27 10° WSW 18:51:14 53° S 19:00:23 25° ESE visible
23 Dec 9.4 20:55:09 10° W 21:06:12 47° SSW 21:06:12 47° SSW visible
23 Dec 10.6 23:10:18 10° W 23:12:01 14° WSW 23:12:01 14° WSW visible
24 Dec 8.8 17:43:50 10° WSW 17:51:18 48° SSE 18:04:13 10° E visible
24 Dec 9.1 19:55:53 10° W 20:05:54 50° S 20:10:12 41° SSE visible
24 Dec 10.1 22:09:47 10° W 22:16:02 27° WSW 22:16:02 27° WSW visible
